This demonstration page uses our WeatherBlox Daily Observations layout. Learn more.

Left ArrowRight Arrow

Hourly Observations for December 5, 2015

Temp ( °F °C ) Dew Point ( °F °C ) Humidity (%) Winds ( mph kmh ) Pressure ( in mb ) Visibility ( mi km ) Precip ( " mm )
12:53 am 00:53 Cloudy with Mist and Fog 31 -0.6 29 -1.7 92 92 N N/A 30.69 1039 3 5 N/A
1:05 am 01:05 Cloudy with Mist and Fog 30 -1.1 28 -2.2 92 92 E 3 6 30.68 1039 2 3 N/A
1:09 am 01:09 Cloudy with Mist and Fog 30 -1.1 28 -2.2 92 92 N N/A 30.68 1039 2 2 N/A
1:37 am 01:37 Cloudy with Mist and Fog 30 -1.1 28 -2.2 92 92 N N/A 30.68 1039 1 1 N/A
1:53 am 01:53 Mostly Cloudy with Freezing Fog 30 -1.1 28 -2.2 92 92 N N/A 30.68 1039 1 1 N/A
2:53 am 02:53 Mostly Cloudy with Freezing Fog 29 -1.7 28 -2.2 96 96 E 3 6 30.69 1039 0 0 N/A
3:53 am 03:53 Mostly Cloudy with Freezing Fog 29 -1.7 28 -2.2 96 96 N N/A 30.70 1040 0 0 N/A
4:53 am 04:53 Mostly Cloudy with Freezing Fog 29 -1.7 28 -2.2 96 96 N N/A 30.70 1040 0 0 N/A
5:53 am 05:53 Mostly Cloudy with Freezing Fog 29 -1.7 29 -1.7 100 100 E 6 9 30.71 1040 0 0 N/A
6:53 am 06:53 Mostly Cloudy with Freezing Fog 28 -2.2 28 -2.2 100 100 N N/A 30.73 1041 0 0 N/A
7:53 am 07:53 Mostly Cloudy with Freezing Fog 29 -1.7 28 -2.2 96 96 NE 3 6 30.73 1041 0 0 N/A
8:53 am 08:53 Mostly Cloudy with Freezing Fog 28 -2.2 28 -2.2 100 100 NNE 5 7 30.73 1041 5 8 N/A
9:53 am 09:53 Mostly Cloudy with Freezing Fog 29 -1.7 28 -2.2 96 96 N N/A 30.74 1041 0 0 N/A
10:53 am 10:53 Mostly Cloudy with Freezing Fog 29 -1.7 29 -1.7 100 100 N N/A 30.74 1041 1 1 N/A
11:36 am 11:36 Cloudy with Mist and Fog 30 -1.1 30 -1.1 100 100 E 3 6 30.74 1041 1 2 N/A
11:46 am 11:46 Cloudy with Mist and Fog 30 -1.1 30 -1.1 100 100 N N/A 30.74 1041 1 1 N/A
11:53 am 11:53 Cloudy with Mist and Fog 31 -0.6 30 -1.1 96 96 N N/A 30.72 1040 1 2 N/A
12:05 pm 12:05 Cloudy with Mist and Fog 31 -0.6 30 -1.1 96 96 N N/A 30.74 1041 2 3 N/A
12:40 pm 12:40 Cloudy with Mist and Fog 32 undefined 31 -0.6 96 96 N N/A 30.71 1040 3 5 N/A
12:53 pm 12:53 Cloudy with Mist and Fog 32 undefined 31 -0.6 96 96 N N/A 30.70 1040 3 5 N/A
1:19 pm 13:19 Cloudy with Mist and Fog 32 undefined 32 undefined 100 100 NNW 3 6 30.71 1040 4 6 N/A
1:45 pm 13:45 Mostly Cloudy with Mist and Fog 35 1.7 32 undefined 89 89 N N/A 30.68 1039 5 8 N/A
1:53 pm 13:53 Mostly Cloudy with Mist and Fog 35 1.7 33 0.6 93 93 N N/A 30.68 1039 5 8 N/A
2:01 pm 14:01 Partly Cloudy with Mist and Fog 36 2.2 33 0.6 89 89 E 3 6 30.68 1039 6 10 N/A
2:53 pm 14:53 Sunny 41 5 34 1.1 76 76 N N/A 30.64 1038 7 11 N/A
3:53 pm 15:53 Sunny 44 6.7 35 1.7 71 71 E 3 6 30.64 1038 7 11 N/A
4:53 pm 16:53 Sunny 41 5 35 1.7 79 79 NNE 3 6 30.63 1037 7 11 N/A
5:53 pm 17:53 Clear 33 0.6 31 -0.6 92 92 N N/A 30.63 1037 7 11 N/A
6:53 pm 18:53 Clear with Mist and Fog 30 -1.1 28 -2.2 92 92 N N/A 30.63 1037 5 8 N/A
7:53 pm 19:53 Clear 28 -2.2 27 -2.8 96 96 N N/A 30.63 1037 7 11 N/A
8:27 pm 20:27 Mostly Clear with Mist and Fog 29 -1.7 28 -2.2 96 96 ENE 5 7 30.62 1037 2 2 N/A
8:31 pm 20:31 Mostly Cloudy with Mist and Fog 30 -1.1 30 -1.1 100 100 ENE 5 7 30.62 1037 1 1 N/A
8:53 pm 20:53 Mostly Cloudy with Freezing Fog 31 -0.6 30 -1.1 96 96 ENE 3 6 30.62 1037 1 1 N/A
9:53 pm 21:53 Mostly Cloudy with Freezing Fog 28 -2.2 27 -2.8 96 96 N N/A 30.61 1037 0 0 N/A
10:53 pm 22:53 Mostly Cloudy with Freezing Fog 30 -1.1 28 -2.2 92 92 N N/A 30.60 1036 0 0 N/A
11:53 pm 23:53 Mostly Cloudy with Freezing Fog 29 -1.7 28 -2.2 96 96 N N/A 30.60 1036 0 0 N/A

Powered by AerisWeather